K5LRY-13 Weather Reports


Display with metric or nautical units.
time (UTC)temp
F
wind
direction
speed
MPH
gust
MPH
rain 1hr
in
rain 24hr
in
rain mn
in
humidity
%
barometer
mb
20260503183334 60 247 5.0 12.0 0.00 0.00 0.00 18 1028.0
20260503181828 59 189 4.0 8.0 0.00 0.00 0.00 17 1028.1
20260503180312 58 262 2.0 10.0 0.00 0.00 0.00 23 1028.1
20260503174832 57 214 2.0 7.0 0.00 0.00 0.00 21 1028.4
20260503173319 57 213 3.0 10.0 0.00 0.00 0.00 22 1028.6
20260503171812 56 278 6.0 11.0 0.00 0.00 0.00 25 1028.6
20260503170326 55 195 5.0 10.0 0.00 0.00 0.00 25 1028.9
20260503150317 46 60 1.0 6.0 0.00 0.01 0.00 46 1028.7
20260503130331 29 61 0.0 2.0 0.00 0.01 0.00 86 1028.6
20260503110316 29 61 1.0 3.0 0.00 0.01 0.00 82 1028.5
20260503090335 33 35 1.0 6.0 0.00 0.01 0.00 77 1028.8
20260503080330 34 46 3.0 6.0 0.00 0.01 0.00 74 1029.2
20260503071833 34 60 2.0 5.0 0.00 0.01 0.00 68 1029.5
20260503070326 34 61 1.0 8.0 0.00 0.01 0.00 64 1029.5
20260503060317 34 60 2.0 9.0 0.00 0.01 0.01 57 1029.2
20260503054811 32 237 2.0 5.0 0.00 0.01 0.01 61 1029.1
20260503053355 32 237 1.0 2.0 0.00 0.01 0.01 61 1029.2
20260503051821 32 237 0.0 2.0 0.00 0.01 0.01 59 1029.0
20260503050315 33 237 0.0 2.0 0.00 0.01 0.01 58 1028.9
20260503044857 33 237 0.0 2.0 0.00 0.01 0.01 57 1029.1
20260503043331 34 237 1.0 4.0 0.00 0.01 0.01 55 1029.0
20260503041824 35 237 0.0 4.0 0.00 0.01 0.01 54 1028.9
20260503040338 35 238 0.0 4.0 0.00 0.01 0.01 52 1028.9
20260503034811 36 237 0.0 1.0 0.00 0.01 0.01 52 1028.8
20260503033327 36 237 0.0 3.0 0.00 0.01 0.01 49 1028.5
20260503031813 38 237 0.0 0.0 0.00 0.01 0.01 47 1028.6
20260503030334 39 237 0.0 0.0 0.00 0.01 0.01 44 1028.4
20260503024827 41 237 0.0 0.0 0.00 0.01 0.01 41 1028.3
20260503023323 43 237 0.0 0.0 0.00 0.01 0.01 38 1028.1
20260503021815 46 237 0.0 0.0 0.00 0.01 0.01 35 1028.2
20260503020329 49 237 0.0 2.0 0.00 0.01 0.01 29 1027.8
20260503014823 51 237 0.0 3.0 0.00 0.01 0.01 26 1027.8
20260503013323 53 237 0.0 3.0 0.00 0.01 0.01 26 1027.8
20260503011836 54 237 0.0 2.0 0.00 0.01 0.01 25 1027.6
20260503010324 56 237 0.0 4.0 0.00 0.01 0.01 22 1027.7
20260503004818 59 237 1.0 9.0 0.00 0.01 0.01 22 1027.8
20260503003313 58 226 2.0 6.0 0.00 0.01 0.01 23 1027.8
20260503001826 54 225 0.0 1.0 0.00 0.01 0.01 28 1028.0
20260503000327 54 224 0.0 2.0 0.00 0.01 0.01 27 1027.9
20260502234813 54 224 2.0 4.0 0.00 0.01 0.01 25 1027.8
20260502233336 56 224 0.0 2.0 0.00 0.01 0.01 25 1027.9
20260502231821 59 224 3.0 7.0 0.00 0.01 0.01 23 1028.0
20260502230316 58 257 4.0 9.0 0.00 0.01 0.01 24 1027.9
20260502224831 55 333 1.0 6.0 0.00 0.01 0.01 29 1027.9
20260502223327 54 282 2.0 9.0 0.00 0.01 0.01 30 1027.9
20260502221819 54 270 1.0 7.0 0.00 0.01 0.01 26 1028.2
20260502220314 57 270 3.0 10.0 0.00 0.01 0.01 24 1028.3
20260502214847 59 281 8.0 11.0 0.00 0.01 0.01 22 1028.5
20260502213320 60 139 3.0 12.0 0.00 0.01 0.01 26 1028.6
20260502211813 58 248 5.0 12.0 0.00 0.06 0.01 24 1028.9
20260502210328 54 216 3.0 6.0 0.00 0.06 0.01 27 1028.9
20260502204821 53 241 5.0 8.0 0.00 0.06 0.01 31 1029.2
20260502203317 52 269 0.0 2.0 0.00 0.06 0.01 32 1029.3
20260502201851 53 268 1.0 7.0 0.00 0.06 0.01 32 1029.4
20260502200345 54 268 0.0 11.0 0.00 0.06 0.01 29 1029.4
20260502194818 56 260 2.0 7.0 0.00 0.06 0.01 28 1029.5
20260502193314 57 237 5.0 10.0 0.00 0.06 0.01 32 1029.4
20260502191826 53 216 1.0 7.0 0.00 0.06 0.01 40 1029.6
20260502190341 51 220 3.0 8.0 0.00 0.06 0.01 35 1030.0
20260502184836 49 220 4.0 9.0 0.00 0.06 0.01 41 1030.0